Hourly Data Report for June 09, 2012

All times are specified in Local Standard Time (LST). Add 1 hour to adjust for Daylight Saving Time where and when it is observed.

VICTORIA HARTLAND CS
BRITISH COLUMBIA

48°32'01.800" N
123°27'32.900" W
154.10 m
1018FJ5

Download Data

Hourly Data (June 2012)
Hourly Data Report for June 9, 2012
Temp Definition
°C
Dew Point Temp Definition
°C
Rel Hum Definition
%
Wind Dir Definition
10's deg

Wind Spd Definition
km/h
Visibility Definition
km
Stn Press Definition
kPa
Hmdx Definition


Wind Chill Definition


Weather Definition


TIME
00:00 7.1 4.6 84   0   99.84     LegendNANA
01:00 6.5 4.1 85   0   99.87     LegendNANA
02:00 8.4 4.6 77 28 2   99.89     LegendNANA
03:00 6.9 4.5 85   0   99.93     LegendNANA
04:00 6.6 4.2 85   0   99.93     LegendNANA
05:00 6.2 4.2 87   0   99.99     LegendNANA
06:00 8.8 5.6 80 15 2   99.98     LegendNANA
07:00 12.3 5.9 65   0   100.05     LegendNANA
08:00 14.1 5.8 57   0   100.05     LegendNANA
09:00 14.0 5.3 56 22 6   100.05     LegendNANA
10:00 13.7 6.4 61 3 4   100.03     LegendNANA
11:00 14.0 6.5 61 35 9   100.05     LegendNANA
12:00 15.1 5.6 53 32 4   100.05     LegendNANA
13:00 16.4 5.5 48 21 11   100.06     LegendNANA
14:00 16.6 5.1 47 22 11   100.09     LegendNANA
15:00 15.6 5.7 52 22 13   100.14     LegendNANA
16:00 15.3 5.6 52 25 11   100.15     LegendNANA
17:00 14.2 5.6 56 25 13   100.15     LegendNANA
18:00 13.7 5.6 58 26 11   100.21     LegendNANA
19:00 12.0 5.4 64 26 15   100.24     LegendNANA
20:00 11.1 5.3 67 26 15   100.27     LegendNANA
21:00 10.9 5.2 68 26 17   100.30     LegendNANA
22:00 10.9 4.9 66 27 13   100.32     LegendNANA
23:00 10.9 5.1 67 28 9   100.34     LegendNANA

Notes on Data Quality.

Legend

  • E = Estimated
  • M = Missing
  • NA = Not Available
  • ‡ = Partner data that is not subject to review by the National Climate Archives
Date modified: